User: anonymous   Login
Location: Thompson
(55.7500°N, 97.8670°W)
Time: 08:57:00
(UTC-05:00)
Language:

Cosmos 1833 Rocket - Orbit

View from above orbital plane
View from above orbital plane
View from above satellite
View from above satellite

Ground track
Ground track

The orbit data is extracted from the following two-line orbital elements,

1 17590U 87027B   17111.85850690 -.00000237 +00000-0 -94351-4 0  9998
2 17590 071.0023 268.5866 0004387 002.6387 357.4759 14.16740107555912
Epoch (UTC): 21 April 2017 20:36:14
Eccentricity: 0.0004387
inclination: 71.0023°
perigee height: 833 km
apogee height: 839 km
right ascension of ascending node: 268.5866°
argument of perigee: 2.6387°
revolutions per day: 14.16740107
mean anomaly at epoch: 357.4759°
orbit number at epoch: 55591

The dashed part of the orbit path shows where the satellite is in the earth's shadow,  

DLR